Flag Weather past 2 weeks in Xiamen, Fujian, China

Now
68 °F

Fog.


Feels Like: 68 °F
Forecast: 69 / 81 °F
Wind: 1 mph from West

Location: Xiamen Airport

Current Time: Nov 28, 2014 at 2:42:12 AM

Latest Report: Nov 28, 2014 at 2:00 AM


Visibility: 2 mi

Pressure: 30.01 "Hg

Humidity: 100%

Dew point: 68 °F

Location of XiamenLocation

Historic Weather in Xiamen — Graph

°F

Xiamen temperature yesterday

Maximum temperature yesterday: 75 °F (at 11:00 AM)
Minimum temperature yesterday: 64 °F (at 1:00 AM)
Average temperature yesterday: 69 °F

Past Weeks' High & Low Weather Summary

 TemperatureHumidityPressure
High81 °F (Nov 22, 12:00 PM)100% (Nov 22, 6:00 AM)30.24 "Hg (Nov 22, 6:00 AM)
Low59 °F (Nov 20, 4:00 AM)29% (Nov 18, 3:00 PM)29.86 "Hg (Nov 25, 3:00 PM)
Average69 °F71%30.08 "Hg
* Reported Nov 13 1:00 AM — Nov 28 1:00 AM, Xiamen, Weather by CustomWeather, © 2014

Note: Actual official high and low records may vary slightly from our data, if they occured in-between our weather recording intervals... More about our weather records

Advertising

Xiamen weather history for previous 24 hours

 ConditionsComfort  
Time TempWeatherWind HumidityBarometerVisibility
1:00 AM
Nov 28
68 °FFog.1 mph100%30.01 "Hg2 mi
12:00 AM68 °FFog.1 mph100%30.01 "Hg2 mi
11:00 PM
Nov 27
68 °FFog.1 mph100%30.04 "Hg3 mi
10:00 PM68 °FPassing clouds.No wind100%30.04 "Hg3 mi
9:00 PM68 °FPassing clouds.1 mph100%30.04 "Hg4 mi
8:00 PM68 °FPassing clouds.1 mph94%30.04 "Hg5 mi
7:00 PM68 °FLight rain. Passing clouds.1 mph94%30.01 "Hg5 mi
6:00 PM68 °FLight rain. Passing clouds.1 mph94%30.01 "Hg4 mi
5:00 PM68 °FPartly sunny.3 mph100%29.98 "Hg5 mi
4:00 PM70 °FOvercast.3 mph88%29.98 "HgN/A
3:00 PM73 °FSprinkles. Overcast.6 mph74%29.98 "HgN/A
2:00 PM75 °FPartly sunny.8 mph65%29.98 "HgN/A
1:00 PM75 °FPartly sunny.10 mph65%29.98 "HgN/A
12:00 PM73 °FPartly sunny.8 mph65%30.04 "HgN/A
11:00 AM75 °FPartly sunny.8 mph65%30.07 "HgN/A
10:00 AM72 °FPassing clouds.10 mph69%30.07 "HgN/A
9:00 AM72 °FScattered clouds.6 mph69%30.07 "HgN/A
8:00 AM68 °FScattered clouds.1 mph78%30.07 "HgN/A
7:00 AM66 °FPassing clouds.1 mph83%30.07 "HgN/A
6:00 AM66 °FPartly cloudy.1 mph83%30.04 "HgN/A
5:00 AM66 °FPassing clouds.No wind83%30.04 "HgN/A
4:00 AM66 °FPassing clouds.1 mph83%30.01 "HgN/A
3:00 AM66 °FPassing clouds.1 mph78%30.01 "HgN/A
2:00 AM66 °FClear.10 mph78%30.01 "Hg10 mi
Weather by CustomWeather, © 2014

See weather overviewHow to use our weather pages